Regional Weather Roundup
Issued by NWS

Current Version | Previous Version | Text Only | Print | Product List | Glossary On
Versions: 1 2 3 4 5 6 7 8 9 10 11 12 13 14 15 16 17 18 19 20 21 22 23 24 25 26 27 28 29 30 31 32 33 34 35 36 37 38 39 40 41 42 43 44 45 46 47 48 49 50
000
ASUS46 KLOX 100514
RWRCA

SOUTHERN CALIFORNIA WEATHER ROUNDUP
NATIONAL WEATHER SERVICE OXNARD CALIFORNIA
900 PM PST TUE FEB 09 2016

NOTE: "FAIR" INDICATES FEW OR NO CLOUDS BELOW 12,000 FEET WITH NO
SIGNIFICANT WEATHER AND/OR OBSTRUCTIONS TO VISIBILITY.

  -  STATIONS PRECEEDED BY AN ASTERISK (*) ARE NOT NWS OR FAA
     STATIONS AND ARE NOT SUBJECT TO NWS AND FAA QUALITY CONTROL.

CAZ041-042-087-100600-
LA AND ORANGE COUNTY COASTAL AREAS


CITY           SKY/WX    TMP DP  RH WIND       PRES   REMARKS
L.A. DOWNTOWN  CLEAR     67  39  35 CALM      30.10R
L.A. AIRPORT   PTCLDY    65  49  56 SW3       30.10S
LONG BEACH     CLEAR     67  41  38 NW3       30.10R

CITY           SKY/WX    TMP DP  RH WIND       PRES   REMARKS
FULLERTON      CLEAR     70  32  24 CALM      30.09R
HAWTHORNE      CLEAR     68  43  40 CALM      30.10S
*LEO CARRILLO    N/A     74  25  16 SW6         N/A
*LOS ALAMITOS  CLEAR     67  34  29 NW5       30.10R
*REDONDO BEACH   N/A     64  44  47 CALM      30.11S
SANTA ANA      PTCLDY    71  34  25 W3        30.10R
STA MONICA APT CLEAR     64  45  49 CALM      30.10R
*STA MON PIER    N/A     65  51  62 E7        30.03S
*UCLA            N/A     75  23  14 NW12      30.08S

$$

CAZ547-548-048-100600-
LA COUNTY VALLEYS AND INLAND EMPIRE


CITY           SKY/WX    TMP DP  RH WIND       PRES   REMARKS
BURBANK        CLEAR     70  27  20 NW7       30.12R
VAN NUYS       CLEAR     70  27  20 CALM      30.13R

CITY           SKY/WX    TMP DP  RH WIND       PRES   REMARKS
CORONA AIRPORT CLEAR     75  26  16 SE5       30.12R
*CHATSWORTH      N/A     68  31  25 CALM      30.12S
CHINO          CLEAR     60  40  47 NW6       30.13R
*CLAREMONT       N/A     63  29  27 CALM        N/A
MARCH AFB      CLEAR     58  29  32 W2        30.14R
*NORTHRIDGE      N/A     73  21  14 S2          N/A
ONTARIO        PTCLDY    67  28  23 NW3       30.13R
*PASADENA        N/A     72  34  25 CALM        N/A
POMONA         CLEAR     63  34  34 CALM      30.16R
RIVERSIDE      CLEAR     69  23  17 E5        30.12R
SAN BERNARDINO CLEAR     63  28  27 CALM      30.14R
*SAN GABRIEL     N/A     68  40  35 CALM      30.17R
*SAN RAFAEL HI   N/A     70  22  16 N8          N/A
*SAUGUS          N/A     68  22  17 N7          N/A
*WHITEMAN AP   NOT AVBL
*WHITTIER HILL   N/A     73  21  14 N5          N/A
*WOODLAND HILL   N/A     63  30  29 SE2         N/A

$$

CAZ054-055-100600-
LA AND SAN BERNARDINO COUNTY MOUNTAINS


CITY           SKY/WX    TMP DP  RH WIND       PRES   REMARKS
*ACTON           N/A     59  22  24 NW5         N/A
*BIG BEAR AIRP CLEAR     28  19  69 CALM      30.43S
*BIG PINES       N/A     49  10  20 CALM        N/A
SANDBERG       CLEAR     60  21  22 E16       30.33R
*WARM SPRINGS    N/A     63  47  55 NE20        N/A

$$

CAZ028-029-059-060-099-100600-
ANTELOPE VALLEY AND SURROUNDING AREAS


CITY           SKY/WX    TMP DP  RH WIND       PRES   REMARKS
LANCASTER      CLEAR     46  31  55 CALM      30.27R
PALMDALE       CLEAR     54  28  36 SW3       30.28R
*POPPY PARK      N/A     49  26  41 NW8         N/A

CITY           SKY/WX    TMP DP  RH WIND       PRES   REMARKS
29 PALMS       CLEAR     56  20  24 SW7       30.29F
BARSTOW/DAGGET CLEAR     55  21  26 SW6       30.24R
BISHOP         MOCLDY    41  28  60 NW8       30.33R
CHINA LAKE     PTCLDY    51  27  39 SW9       30.26S
EDWARDS AFB    PTCLDY    52  25  35 NE3       30.25R
MOJAVE         CLEAR     54  27  35 N8        30.27R
NEEDLES        CLEAR     66  25  21 NW8       30.18S
VICTORVILLE    CLEAR     46  19  34 W8        30.28R

$$

CAZ039-040-100600-
VENTURA AND SANTA BARBARA COUNTY COAST


CITY           SKY/WX    TMP DP  RH WIND       PRES   REMARKS
CAMARILLO      CLEAR     60  40  47 E6        30.11F
NWS OXNARD       N/A     62  42  47 CALM      30.10F
OXNARD AIRPORT CLEAR     60  45  57 W12       30.13R
*POINT MUGU    PTCLDY    63  42  46 W6        30.13R
SBA APT/GOLETA PTCLDY    57  40  52 CALM      30.11S
*SANTA BARBARA   N/A     66  40  38 CALM      30.19R
*VENTURA         N/A     61  38  43 NW3       30.10S

$$

CAZ044-045-100600-
VENTURA COUNTY VALLEYS


CITY           SKY/WX    TMP DP  RH WIND       PRES   REMARKS
*SIMI VALLEY     N/A     75  27  17 NE10      30.07R
*WESTLAKE VILL   N/A     55  34  45 NE1       30.13S
*OJAI            N/A     52  39  62 CALM      30.09S
*FILLMORE        N/A     61  33  36 CALM      30.02S

$$

CAZ053-100600-
VENTURA COUNTY MOUNTAINS


CITY           SKY/WX    TMP DP  RH WIND       PRES   REMARKS
*LOCKWOOD VLY    N/A     34  19  55 MISG        N/A
*ROSE VALLEY     N/A     39  28  65 MISG        N/A

$$

CAZ034-035-036-100600-
CENTRAL COAST AND SANTA YNEZ VALLEY


CITY           SKY/WX    TMP DP  RH WIND       PRES   REMARKS
SAN LUIS OBISP PTCLDY    58  44  60 CALM      30.16R
SANTA MARIA    PTCLDY    56  45  66 S6        30.17S

CITY           SKY/WX    TMP DP  RH WIND       PRES   REMARKS
*CAL POLY SLO    N/A     55  45  67 N1G9        N/A
*PISMO BEACH     N/A     61  47  58 W2        30.16R
*SANTA YNEZ    FAIR      55  37  50 W3        30.18S

$$

CAZ037-038-051-100600-
SAN LUIS OBISPO COUNTY INTERIOR AND CUYAMA VALLEY


CITY           SKY/WX    TMP DP  RH WIND       PRES   REMARKS
*CUYAMA          N/A     54  38  55 E2        30.17R
PASO ROBLES    PTCLDY    53  46  77 CALM      30.20R

$$

CAZ032-033-061-100600-
SOUTHERN DESERTS


CITY           SKY/WX    TMP DP  RH WIND       PRES   REMARKS
BLYTHE         CLEAR     63  24  22 N9        30.14S
IMPERIAL       CLEAR     61  29  29 SW3       30.11R
PALM SPRINGS   CLEAR     67  29  24 NW6       30.15S
THERMAL        CLEAR     56  34  43 W3        30.10S

$$

ELSEWHERE ACROSS THE WESTERN UNITED STATES AND MEXICO


CITY           SKY/WX    TMP DP  RH WIND       PRES   REMARKS
DEATH VALLEY,    N/A     66  29  24 E2          N/A
DENVER, CO     CLOUDY    40  20  44 SW17      30.25F WCI  31
GRAND CANYON,  PTCLDY    31  21  66 NE7       30.44S WCI  24
HONOLULU, HI   PTCLDY    73  55  53 SW3       30.03R
KAHULUI, MAUI  PTCLDY    71  61  70 E5        30.04
LAKE TAHOE, CA MOCLDY    30  26  85 CALM      30.39S
LAS VEGAS, NV  CLEAR     60  28  29 W6        30.23R
MAMMOTH LAKES, FAIR      32  19  59 N5        30.46R WCI  27
MEXICO CITY, M CLOUDY    52  36  54 W6        30.43R
PHOENIX, AZ    CLEAR     69  28  21 SE5       30.13R
PORTLAND, OR   MOCLDY    50  39  66 E9        30.15S
RENO, NV       MOCLDY    46  34  62 CALM      30.36R
SALT LAKE CITY PTCLDY    29  26  89 NW3       30.47S FOG
SAN DIEGO, CA  PTCLDY    70  38  31 CALM      30.09R
SAN FRANCISCO, MOCLDY    58  51  78 CALM      30.17S
SAN JOSE, CA   CLOUDY    63  51  65 E3        30.17S
SEATTLE, WA    MOCLDY    55  40  56 SE3       30.12F
TIJUANA, MEX   CLEAR     68  28  22 E6        30.11F

$$

STATION/POSITION TIME  TEMP    WIND        PRES    VSBY  WAVE
                       AIR SEA DIR/SP/G                  HT/PER
                 (UTC) (F)     (DEG/KT/KT) (MB)    (MI)  (FT/S)
POINT ARGUELLO B NOT AVBL
WEST SANTA BARBA 0450   62 58  320/ 16/ 17 1019.8S         6/14
POINT CONCEPTION NOT AVBL
EAST SANTA BARBA 0500   61 57  230/  8/ 10 1020.0F
SANTA MONICA BAY 0450   62 61  340/ 10/ 10 1019.6S         3/15


USA.gov is the U.S. government's official web portal to all federal, state and local government web resources and services.